Temp
77 73 67 74 72 74 77 70 66 65 70 65 66 65 68 69 70 69 69 75 75 72 79 78 75 73 70 67 66 65 64 62 62 61 61 60 61 62 63 64 67 67 66 67
74 67 77 83 84 78 78 67 63 67 70 65 62 64 68 67 67 67 69 69 70 69 74 75 71 70 69 65 63 63 63 62 62 61 61 62 61 62 63 64 65 66 67 66
69 77 85 81 77 77 70 68 66 66 67 66 63 60 62 66 68 71 72 72 74 71 72 70 70 67 66 63 63 63 62 62 62 63 62 61 61 61 62 62 63 65 68 68
74 82 82 77 75 76 64 76 74 71 62 54 65 49 57 61 64 74 73 72 72 72 72 71 67 64 65 65 66 64 63 62 63 63 62 61 60 59 61 61 63 65 67 67
73 75 76 74 75 77 73 76 72 67 59 57 62 53 56 60 61 65 69 73 74 72 70 69 67 66 67 68 66 65 63 63 64 63 63 62 60 61 61 61 62 61 62 64
77 81 81 78 84 80 81 70 65 60 55 48 56 55 52 57 60 65 68 72 74 72 70 67 68 68 68 68 66 65 64 63 64 64 64 63 62 61 61 61 60 60 60 61
72 75 81 84 75 77 71 59 50 50 49 48 59 56 59 63 66 67 69 69 71 73 70 68 67 66 66 66 66 65 64 64 64 65 65 65 64 63 62 62 61 60 59 59
61 61 75 84 74 67 66 63 52 45 46 48 58 51 59 65 68 69 69 68 70 72 69 70 69 68 68 68 67 68 65 65 65 65 66 66 65 65 63 63 62 61 60 61
61 65 78 83 79 75 68 61 64 55 51 48 49 58 63 63 64 66 68 72 70 70 71 70 70 70 69 69 68 68 67 65 65 66 65 65 65 65 64 65 63 63 63 63
70 60 74 79 79 77 71 70 59 53 44 41 50 52 52 60 62 65 66 65 69 71 70 70 72 70 71 70 70 70 69 67 66 66 65 65 66 65 64 64 63 63 63 63
71 64 67 73 69 65 66 61 56 56 52 43 43 50 61 64 64 64 67 69 67 69 70 71 72 72 72 71 71 70 69 67 66 64 61 63 65 65 64 63 62 63 63 63
69 62 58 66 73 76 67 61 60 52 50 51 50 49 66 64 66 65 68 69 67 70 73 72 72 72 70 70 70 67 66 68 67 66 61 63 63 63 63 63 63 63 63 64
69 59 53 58 63 69 65 68 62 57 54 52 49 52 67 64 65 67 66 70 69 71 71 70 70 73 71 71 70 70 66 67 67 64 63 62 62 62 61 62 63 64 64 65
69 60 59 54 60 63 62 69 68 61 52 54 55 58 64 64 64 67 68 68 69 68 71 70 69 70 71 72 70 71 66 67 66 65 64 64 64 62 61 62 63 66 67 65
67 60 62 65 71 70 67 68 67 61 60 54 58 58 62 64 65 67 69 71 73 70 72 72 71 70 70 70 71 73 69 69 67 66 63 64 65 65 65 64 65 66 64 63
64 61 62 63 68 68 66 68 69 69 65 68 65 60 65 66 66 70 70 72 69 70 72 72 72 72 71 70 70 66 65 64 64 66 65 67 68 68 64 63 62 62 61 61
62 60 57 55 62 63 58 59 63 67 68 66 58 61 65 65 69 67 68 68 70 71 72 72 68 65 66 64 65 64 63 65 64 63 65 68 68 68 65 63 62 60 59 59
62 59 56 53 56 48 60 66 68 68 69 69 68 68 68 67 66 68 69 65 70 71 71 68 65 65 64 63 63 63 63 62 63 63 64 65 66 66 64 62 61 59 58 59
65 59 54 51 49 57 63 64 66 65 64 70 67 68 70 70 67 67 72 71 68 66 68 66 65 65 62 62 61 61 61 61 62 62 63 65 64 64 63 61 58 58 57 56
64 59 58 51 49 48 60 67 68 68 55 69 69 67 66 65 56 60 70 70 71 71 69 65 64 64 61 61 60 60 59 59 59 61 64 63 64 64 62 59 57 57 56 56
55 55 56 50 51 58 67 70 70 54 54 67 69 67 64 61 62 67 69 69 69 69 68 65 63 62 62 60 60 59 59 58 61 64 62 64 65 66 62 57 56 56 55 55
58 54 53 51 49 51 71 70 61 62 63 68 67 68 66 65 67 68 68 67 67 66 66 65 63 61 60 61 60 59 59 61 62 61 62 62 61 62 61 57 55 56 54 54
57 59 57 57 56 63 65 65 67 67 67 69 68 68 69 68 65 66 65 65 66 66 65 65 61 59 60 61 61 59 61 60 60 60 59 58 59 59 57 56 55 54 53 52
59 61 58 60 65 65 68 69 71 72 72 72 71 70 69 67 66 65 66 65 65 65 64 62 60 59 59 59 60 59 59 60 59 56 56 55 55 56 55 55 54 53 52 52
58 60 56 56 62 68 70 70 72 72 72 73 73 72 69 68 67 66 65 65 65 65 64 64 61 59 59 59 59 59 59 59 56 56 55 54 54 53 53 54 54 54 54 54
60 60 56 54 63 65 66 70 74 71 71 72 71 69 70 70 68 67 65 64 64 64 64 61 60 60 60 59 59 59 59 59 56 54 54 53 52 53 53 52 54 50 49 49
MSLP
1008.31 1008.63 1008.92 1008.61 1008.62 1008.05 1009.03 1010.16 1011.27 1012.21 1013.00 1013.52 1013.79 1014.85 1014.93 1014.86 1014.94 1016.10 1015.13 1012.64 1012.64 1012.77 1011.56 1011.26 1012.32 1013.09 1013.59 1014.11 1014.65 1015.22 1016.05 1016.59 1016.80 1017.13 1017.45 1017.71 1017.73 1017.44 1017.30 1017.13 1016.93 1017.07 1017.01 1017.01
1008.68 1008.86 1008.38 1007.85 1007.31 1007.57 1007.94 1009.51 1011.05 1012.45 1013.17 1013.97 1015.28 1015.49 1015.63 1015.63 1015.85 1015.77 1015.15 1014.11 1013.67 1013.62 1012.92 1011.90 1012.49 1013.29 1014.13 1014.86 1015.53 1016.09 1016.50 1016.73 1016.90 1017.07 1016.99 1017.08 1017.16 1017.20 1016.99 1016.72 1016.67 1016.97 1016.87 1016.89
1009.01 1008.63 1007.98 1007.95 1007.71 1007.76 1008.42 1009.10 1010.38 1011.67 1013.07 1013.66 1014.83 1015.92 1016.24 1016.25 1015.87 1014.89 1014.26 1014.13 1013.72 1013.76 1013.95 1012.65 1013.41 1014.09 1014.84 1015.51 1015.93 1016.22 1016.47 1016.79 1017.04 1017.19 1017.35 1017.40 1017.27 1017.11 1017.01 1016.91 1016.77 1016.75 1016.61 1016.56
1008.67 1008.14 1007.92 1007.72 1007.83 1007.78 1008.03 1008.38 1009.95 1011.33 1012.76 1014.09 1014.76 1016.57 1016.49 1016.19 1014.66 1013.37 1013.43 1013.81 1013.33 1013.32 1013.29 1012.92 1013.72 1014.66 1015.29 1015.85 1016.00 1016.12 1016.51 1016.83 1016.98 1017.13 1017.30 1017.32 1017.23 1017.31 1016.96 1016.78 1016.60 1016.56 1016.47 1016.54
1008.75 1008.31 1007.92 1007.85 1007.51 1007.55 1007.99 1008.60 1009.75 1011.41 1012.88 1014.44 1015.29 1016.05 1017.11 1016.85 1016.03 1015.19 1013.77 1013.52 1013.49 1013.18 1013.21 1013.24 1013.74 1014.31 1014.80 1015.29 1015.64 1016.00 1016.37 1016.56 1016.74 1016.79 1016.89 1016.87 1017.01 1016.92 1016.58 1016.60 1016.76 1016.73 1016.67 1016.66
1008.38 1007.89 1007.56 1007.32 1006.89 1006.93 1007.69 1009.26 1010.88 1012.29 1013.79 1015.31 1015.75 1016.41 1017.50 1016.91 1016.84 1016.55 1015.15 1013.95 1013.63 1013.78 1013.13 1013.54 1013.77 1014.22 1014.76 1015.09 1015.43 1015.77 1016.06 1016.28 1016.29 1016.55 1016.55 1016.65 1016.79 1016.60 1016.51 1016.62 1016.79 1016.65 1016.46 1016.51
1008.84 1008.05 1007.35 1007.05 1007.02 1006.28 1007.56 1009.95 1012.26 1013.79 1014.87 1016.07 1015.74 1015.93 1015.73 1015.85 1016.26 1014.96 1014.05 1014.09 1013.67 1013.80 1013.22 1013.43 1013.90 1014.48 1014.82 1014.99 1015.35 1015.57 1015.75 1015.94 1015.95 1016.13 1016.23 1016.35 1016.33 1016.39 1016.48 1016.39 1016.52 1016.58 1016.41 1016.37
1009.60 1008.63 1007.78 1007.40 1007.68 1008.39 1008.40 1009.99 1012.13 1014.09 1015.63 1016.66 1016.35 1016.38 1016.11 1015.37 1014.99 1014.52 1013.59 1013.39 1013.92 1013.54 1013.69 1013.24 1013.57 1013.79 1014.17 1014.41 1014.80 1015.09 1015.21 1015.40 1015.73 1015.83 1015.57 1015.56 1015.68 1015.88 1015.92 1015.89 1016.16 1016.20 1016.18 1015.98
1009.68 1008.96 1008.11 1007.71 1007.70 1008.39 1009.15 1010.24 1011.50 1013.50 1015.63 1016.65 1016.98 1016.48 1016.23 1015.63 1015.29 1014.53 1013.77 1013.37 1013.19 1013.18 1013.45 1012.89 1013.22 1013.31 1013.43 1013.74 1014.09 1014.23 1014.39 1014.85 1015.36 1015.10 1015.22 1015.50 1015.45 1015.65 1015.71 1015.55 1015.73 1015.76 1015.70 1015.79
1009.25 1009.45 1008.74 1007.96 1007.91 1008.31 1009.12 1010.32 1011.73 1013.69 1015.70 1017.07 1016.95 1016.62 1016.34 1015.67 1015.09 1014.47 1014.09 1013.35 1012.49 1012.38 1012.96 1012.50 1012.46 1012.60 1012.58 1012.71 1012.90 1013.44 1013.40 1013.90 1014.21 1014.31 1014.86 1015.11 1014.93 1015.19 1015.20 1015.45 1015.53 1015.41 1015.37 1015.48
1008.77 1009.48 1009.55 1008.81 1008.83 1009.24 1009.67 1010.88 1012.73 1013.85 1015.09 1016.21 1017.03 1016.13 1014.79 1013.88 1014.13 1014.31 1013.59 1012.67 1012.57 1012.69 1012.14 1011.95 1011.85 1011.83 1011.77 1011.97 1012.26 1012.63 1012.93 1013.07 1013.56 1013.82 1014.27 1014.33 1014.43 1014.76 1014.85 1015.17 1015.24 1015.15 1015.17 1015.11
1008.64 1009.85 1010.28 1009.85 1009.46 1009.15 1009.79 1010.80 1011.83 1013.72 1015.25 1015.50 1015.53 1015.13 1013.89 1013.59 1013.19 1013.44 1012.99 1012.59 1012.38 1011.74 1011.41 1011.50 1011.41 1011.31 1011.19 1011.28 1011.79 1011.92 1012.46 1012.63 1012.52 1012.74 1013.57 1013.81 1014.00 1014.42 1014.53 1014.53 1014.53 1014.65 1014.95 1014.93
1008.98 1010.53 1011.15 1010.69 1010.13 1010.17 1010.55 1011.09 1011.75 1012.93 1013.93 1014.89 1015.29 1014.51 1013.26 1013.66 1013.55 1012.98 1013.01 1012.11 1012.10 1011.89 1011.75 1011.77 1011.73 1011.33 1010.87 1010.86 1011.19 1011.53 1012.15 1012.37 1012.57 1012.80 1013.15 1013.52 1013.65 1013.87 1014.11 1014.14 1014.25 1014.10 1014.11 1014.32
1009.23 1010.69 1011.48 1011.92 1011.39 1011.13 1011.32 1011.40 1011.22 1012.32 1013.96 1014.55 1014.55 1013.75 1013.21 1013.55 1013.51 1012.94 1012.41 1011.89 1012.05 1012.20 1012.10 1012.13 1012.01 1011.30 1010.83 1010.29 1010.49 1010.28 1010.63 1010.78 1011.73 1012.20 1012.98 1012.96 1012.91 1013.17 1013.51 1013.68 1013.80 1013.84 1013.73 1013.97
1010.29 1011.31 1011.55 1011.72 1011.37 1011.26 1011.38 1011.52 1011.75 1012.65 1013.39 1013.93 1014.64 1014.17 1013.59 1013.26 1013.33 1012.99 1012.15 1011.90 1012.02 1011.97 1011.77 1011.49 1011.15 1010.93 1010.52 1010.41 1010.00 1008.80 1009.48 1011.41 1011.18 1012.31 1012.83 1012.62 1012.35 1012.69 1012.80 1013.10 1012.99 1013.37 1013.64 1013.95
1011.19 1011.77 1011.93 1012.05 1011.92 1011.69 1011.95 1012.41 1012.47 1012.71 1013.24 1012.71 1013.53 1013.83 1013.20 1013.18 1012.95 1012.70 1012.48 1012.29 1012.17 1011.93 1011.78 1011.66 1011.33 1010.97 1010.58 1010.79 1012.14 1012.48 1013.61 1013.69 1013.70 1014.39 1013.75 1012.63 1012.10 1012.36 1012.65 1012.95 1013.29 1013.60 1013.98 1014.21
1012.04 1012.70 1012.91 1012.99 1012.61 1012.36 1012.64 1013.19 1013.12 1012.89 1012.57 1012.78 1013.30 1013.15 1012.98 1013.33 1012.94 1012.74 1012.57 1012.35 1012.15 1011.95 1011.81 1011.78 1011.98 1011.55 1011.33 1011.48 1011.95 1012.53 1013.57 1013.59 1013.19 1013.21 1013.66 1013.04 1012.74 1012.28 1012.41 1012.75 1013.14 1013.69 1014.06 1014.17
1012.24 1013.34 1013.50 1014.01 1013.51 1013.37 1012.67 1012.72 1012.15 1012.54 1012.73 1012.70 1013.05 1012.94 1012.92 1013.03 1013.01 1012.64 1012.43 1012.34 1012.18 1011.92 1012.10 1012.07 1012.06 1011.74 1011.95 1012.04 1012.35 1012.83 1013.37 1013.85 1013.72 1013.08 1013.39 1013.12 1012.93 1013.07 1012.93 1012.97 1013.37 1014.05 1014.17 1014.11
1012.04 1013.29 1014.08 1014.67 1014.63 1013.94 1012.78 1012.98 1012.65 1012.45 1013.01 1012.61 1012.98 1012.93 1012.59 1012.87 1012.98 1012.74 1012.53 1012.35 1012.04 1011.97 1012.09 1012.06 1012.06 1012.04 1012.39 1012.45 1012.89 1012.89 1013.33 1013.32 1013.27 1013.10 1012.45 1012.56 1013.29 1013.21 1013.29 1013.60 1013.77 1013.95 1014.06 1014.07
1012.84 1013.58 1013.79 1014.69 1014.79 1014.06 1012.51 1012.49 1012.30 1012.02 1012.77 1012.46 1012.62 1012.70 1012.79 1013.07 1013.57 1013.57 1012.65 1012.35 1011.86 1011.95 1011.96 1012.30 1012.73 1012.61 1012.80 1013.27 1013.18 1013.21 1013.51 1013.53 1013.41 1013.06 1012.80 1013.23 1013.49 1013.70 1013.55 1013.69 1013.97 1013.93 1013.99 1014.08
1013.06 1013.64 1013.73 1014.17 1014.08 1013.20 1011.97 1012.19 1012.47 1013.21 1013.01 1012.38 1012.29 1012.31 1012.49 1013.19 1013.45 1013.17 1012.77 1012.55 1012.30 1012.29 1012.34 1012.71 1012.99 1013.27 1013.54 1013.79 1013.90 1013.79 1013.85 1013.70 1013.19 1013.33 1013.61 1013.69 1013.57 1013.30 1013.63 1014.00 1013.96 1013.96 1014.02 1013.93
1012.48 1013.15 1013.63 1014.04 1013.79 1012.89 1011.55 1012.53 1012.57 1012.04 1011.96 1011.95 1012.20 1012.15 1012.41 1012.73 1012.96 1013.19 1013.11 1013.11 1012.95 1013.01 1013.15 1013.16 1013.34 1013.59 1013.82 1013.77 1013.75 1014.03 1013.89 1013.33 1013.78 1013.94 1014.00 1013.85 1013.67 1013.80 1013.87 1013.99 1013.89 1013.77 1013.77 1013.76
1012.59 1012.57 1012.78 1013.59 1013.05 1011.99 1011.55 1011.51 1011.07 1011.27 1011.53 1011.71 1011.91 1012.08 1012.27 1012.69 1013.15 1013.35 1013.50 1013.54 1013.45 1013.34 1013.41 1013.55 1013.64 1013.87 1013.96 1014.01 1013.80 1013.95 1013.79 1013.96 1013.91 1013.92 1014.01 1013.94 1013.87 1013.85 1013.77 1013.78 1013.64 1013.61 1013.59 1013.70
1012.59 1012.71 1013.05 1013.25 1012.79 1012.28 1011.91 1011.68 1011.53 1011.18 1011.22 1011.24 1011.60 1011.92 1012.09 1012.62 1012.95 1013.29 1013.55 1013.63 1013.51 1013.49 1013.57 1013.80 1013.93 1014.05 1014.07 1013.91 1014.04 1014.17 1013.90 1013.84 1014.11 1014.23 1014.11 1013.92 1013.75 1013.63 1013.48 1013.42 1013.41 1013.41 1013.30 1013.21
1013.04 1012.69 1013.24 1013.56 1012.55 1011.70 1011.53 1011.37 1011.45 1011.39 1011.13 1011.34 1011.57 1011.67 1012.04 1012.39 1012.85 1013.14 1013.47 1013.56 1013.44 1013.41 1013.50 1013.60 1013.85 1014.04 1014.14 1014.16 1014.21 1014.08 1013.85 1013.91 1014.15 1014.22 1014.10 1013.95 1013.84 1013.67 1013.49 1013.26 1013.01 1012.80 1012.39 1012.23
1012.46 1012.32 1012.72 1012.31 1011.59 1011.25 1011.05 1010.94 1010.84 1011.09 1011.06 1011.12 1011.37 1011.71 1011.91 1012.23 1012.66 1012.87 1013.23 1013.33 1013.37 1013.37 1013.48 1013.63 1013.83 1013.99 1014.00 1014.02 1013.95 1013.84 1013.74 1013.80 1013.93 1014.01 1013.91 1013.76 1013.64 1013.40 1013.17 1012.94 1012.33 1011.62 1011.45 1011.03
Wind_Speed
4 7 7 13 7 7 5 0 7 2 10 8 9 4 4 4 6 4 14 4 8 13 15 7 7 9 8 7 8 8 8 5 4 2 3 2 2 2 2 3 4 6 5 6
7 3 7 12 13 6 6 9 4 3 2 6 4 5 4 4 2 3 11 7 10 11 15 7 9 8 7 7 7 7 6 6 3 1 2 3 2 3 3 2 5 6 6 6
2 9 9 8 11 5 1 7 7 7 4 5 7 3 3 2 7 5 6 7 10 11 13 7 6 6 7 7 7 8 7 5 4 4 0 2 1 1 1 1 2 4 6 4
4 6 7 13 6 1 1 4 9 11 4 4 1 2 7 5 8 5 6 7 7 5 4 5 8 7 8 6 6 7 6 5 4 5 2 3 2 1 3 2 3 4 5 5
7 7 11 11 6 2 8 4 11 5 6 7 4 7 8 7 6 5 14 10 9 3 3 8 10 11 11 10 8 7 7 6 5 6 5 3 3 3 2 2 1 2 4 5
5 4 4 6 10 6 5 8 8 6 4 5 2 8 6 5 1 6 12 14 10 7 6 6 7 11 10 9 8 7 8 7 7 7 7 6 5 4 3 3 3 2 2 3
8 6 6 1 8 8 7 7 4 6 6 2 3 5 5 4 5 13 14 13 10 7 7 9 10 8 10 10 9 7 8 8 8 7 6 7 7 6 5 3 2 3 1 2
2 11 5 7 4 5 5 8 7 3 2 2 6 2 2 8 9 14 19 12 6 7 8 9 11 11 12 13 12 10 9 8 7 7 9 8 7 4 4 4 3 3 3 3
4 7 2 5 1 2 3 5 2 7 4 5 3 1 5 7 9 12 11 8 9 8 11 8 9 12 14 13 13 14 12 8 8 10 6 6 6 6 5 5 5 4 3 4
5 2 4 4 5 4 5 2 4 4 4 2 4 4 4 8 12 10 13 12 15 6 9 8 11 11 12 13 13 13 13 12 10 10 5 5 7 5 6 4 7 5 5 4
6 4 7 2 1 3 4 2 7 4 5 7 4 6 8 9 10 7 11 9 6 7 9 9 10 10 11 10 12 12 11 11 10 9 6 7 6 7 6 5 6 6 5 6
1 5 1 5 4 5 3 3 6 6 2 2 4 6 6 10 7 6 9 8 9 9 12 10 10 9 9 11 11 10 8 11 13 11 7 8 5 5 5 6 7 7 7 5
3 3 4 12 8 6 3 2 2 4 4 3 6 6 2 4 9 8 9 15 9 7 8 6 5 7 8 10 10 10 7 11 10 8 7 7 8 6 6 6 6 6 7 6
7 4 7 6 8 4 3 9 5 6 5 2 2 2 5 4 8 10 11 10 8 3 5 6 7 9 8 8 7 10 11 11 9 10 10 10 9 7 7 8 7 7 5 5
5 3 3 4 6 3 2 9 13 14 2 8 4 2 5 5 6 7 5 8 6 3 5 7 7 7 9 7 7 11 8 4 10 8 5 9 9 10 9 9 7 5 6 5
5 1 3 6 4 3 2 6 5 4 5 7 8 1 3 2 1 8 7 6 6 5 5 7 8 9 9 3 12 19 19 10 11 11 8 9 10 8 6 4 5 6 6 6
4 2 3 3 3 1 4 2 4 5 7 6 4 3 0 4 6 5 6 6 5 5 6 8 6 4 10 10 8 11 6 6 8 9 7 9 3 5 6 7 7 6 6 5
5 1 3 3 3 1 5 7 9 11 5 6 5 2 1 2 3 3 4 2 6 6 7 3 4 1 6 8 8 8 6 6 6 7 5 8 8 6 2 4 5 3 3 4
8 4 2 3 1 5 4 2 3 3 3 3 6 1 4 4 4 5 5 4 4 2 1 5 5 1 5 7 6 9 6 5 7 6 6 5 5 5 4 4 4 4 3 3
4 2 5 3 3 6 6 5 5 4 5 2 6 3 2 3 4 5 7 5 5 6 3 5 1 1 7 5 5 8 6 6 5 3 2 2 3 3 4 4 3 2 2 3
1 1 6 3 3 6 5 8 3 7 10 6 6 4 2 1 5 6 6 8 6 5 5 4 4 3 4 5 4 5 5 5 6 1 2 5 4 4 6 4 3 2 3 2
7 6 4 4 3 4 6 6 8 8 5 6 5 5 3 2 3 5 7 7 7 7 5 3 4 4 4 4 6 5 5 5 1 2 5 6 3 3 3 5 3 3 2 3
1 7 5 5 7 4 2 2 1 5 6 6 6 4 6 5 3 4 4 6 5 5 4 3 6 5 3 5 6 6 3 2 4 4 3 4 3 3 3 4 4 2 3 4
2 1 3 4 6 6 4 1 5 5 5 4 6 6 6 7 5 5 3 2 2 1 3 3 5 5 5 5 3 2 3 3 2 3 4 4 3 4 4 3 4 4 5 5
4 3 3 1 7 4 5 3 6 2 7 7 6 4 8 8 4 4 2 2 3 4 2 3 5 5 6 4 4 4 4 4 4 4 4 3 3 4 5 5 5 5 7 7
4 7 5 8 10 6 8 7 7 8 8 8 7 6 5 6 6 4 3 2 4 5 3 3 4 4 5 5 5 6 5 4 3 3 3 4 3 4 4 4 6 9 14 15
Wind_Direction
350 9 324 302 245 189 208 73 132 96 127 72 134 111 304 98 241 293 279 204 305 306 302 166 120 134 137 138 131 128 121 127 121 108 120 62 255 282 276 244 214 217 178 167
9 300 275 339 356 174 107 119 119 92 64 79 211 161 253 97 36 291 277 326 300 287 310 115 124 141 147 104 99 106 119 143 164 162 170 169 183 229 225 255 183 197 178 178
170 268 318 6 353 37 43 145 188 144 134 71 156 69 64 17 184 235 235 255 277 264 263 121 132 126 106 99 124 142 157 156 186 171 315 354 339 319 336 269 159 206 202 184
273 295 342 337 332 295 336 195 110 130 121 114 143 337 1 309 325 26 298 303 294 318 242 125 100 100 111 129 148 153 154 174 211 187 172 195 191 217 242 220 207 193 222 206
262 314 323 323 263 10 239 45 128 116 94 106 333 69 290 322 347 282 300 303 334 271 151 119 138 144 153 153 170 161 169 193 213 199 198 181 199 225 233 133 151 269 265 230
240 242 228 233 289 247 191 83 43 56 75 57 216 126 280 255 258 310 275 293 299 228 130 129 140 141 156 164 161 168 178 200 211 202 211 202 207 189 163 187 215 232 268 226
332 283 287 303 347 309 94 58 10 13 20 191 329 85 214 219 184 222 254 278 302 245 159 157 150 163 163 172 179 183 189 208 210 206 205 212 217 211 205 197 209 173 273 198
258 334 27 318 97 261 90 136 147 183 177 184 355 143 210 216 218 244 250 254 276 301 246 175 175 181 174 183 183 191 197 209 201 209 215 211 211 216 213 193 216 216 202 210
177 264 351 51 5 50 344 44 145 101 60 76 272 348 327 279 252 263 269 294 273 255 237 179 186 192 180 184 190 193 201 196 190 217 220 224 216 217 224 209 202 214 206 205
250 321 314 316 56 0 107 164 36 17 105 141 308 291 222 255 264 258 263 256 265 234 210 193 197 194 192 186 192 196 198 191 198 206 189 217 229 215 221 231 216 221 225 233
167 117 294 19 304 200 330 53 53 108 133 144 167 255 226 235 223 249 233 231 268 230 196 199 205 200 200 193 192 197 198 185 188 195 165 203 226 205 212 217 238 236 255 239
16 131 56 264 314 229 148 181 136 117 240 200 147 260 233 245 254 239 269 275 285 223 204 208 211 200 203 205 197 194 183 189 187 199 171 211 201 207 207 222 226 219 231 238
184 13 28 342 352 5 12 234 178 114 82 189 119 257 235 289 288 286 278 282 305 246 236 254 271 238 216 218 205 190 176 200 192 176 175 205 222 227 239 236 246 212 214 228
82 107 141 183 231 212 353 30 73 135 91 239 15 21 339 284 270 296 286 260 262 355 318 297 272 257 253 225 194 191 185 184 184 169 195 202 208 213 220 227 221 218 208 165
88 110 130 221 40 43 23 93 77 62 270 112 263 353 293 264 248 234 59 80 107 315 10 353 324 286 241 258 229 214 150 271 178 176 182 208 207 213 218 227 227 155 149 150
359 349 48 354 65 15 104 63 90 124 176 113 130 176 271 343 86 39 40 46 17 349 335 308 317 340 284 330 43 53 27 46 21 6 280 230 213 216 220 223 149 143 134 134
54 65 67 277 8 35 340 15 17 330 34 124 153 190 51 38 65 44 32 43 20 347 333 342 6 46 80 92 99 111 164 70 77 92 338 298 271 212 186 160 146 151 158 151
82 75 104 236 28 260 235 207 190 125 104 74 79 82 56 120 201 50 28 85 341 315 346 19 170 141 62 104 102 107 101 122 121 81 46 13 359 346 71 125 117 126 164 173
144 133 63 116 161 288 280 202 245 149 197 94 129 67 38 18 45 341 355 342 293 334 241 189 196 108 91 88 99 91 72 97 104 136 125 259 3 322 125 106 157 202 187 192
82 86 133 131 155 210 241 140 153 86 329 113 132 89 40 57 44 271 296 306 330 27 173 175 193 34 105 82 83 93 96 90 94 189 226 356 310 226 128 174 189 211 196 228
153 208 169 142 172 270 253 123 102 96 232 193 156 152 73 81 196 249 309 4 1 30 70 62 87 115 116 101 140 125 119 147 201 269 319 298 217 153 207 207 211 207 235 264
172 136 193 90 107 253 190 126 169 200 170 166 174 171 161 190 341 351 20 29 35 66 101 110 95 78 110 115 120 136 183 228 60 313 258 245 248 264 186 197 223 238 257 287
138 177 175 147 214 284 306 240 20 136 151 181 149 176 137 96 50 65 62 54 83 115 131 105 116 119 133 161 173 182 229 184 246 239 313 333 293 256 219 203 237 273 263 252
302 58 101 89 336 346 225 275 301 174 168 126 146 162 123 115 112 102 96 31 49 148 150 154 137 144 170 208 195 237 174 228 299 295 284 289 266 287 295 272 245 237 245 247
220 19 110 308 275 343 44 177 199 186 127 136 178 136 136 116 97 122 145 17 45 86 103 150 167 182 204 212 230 231 221 204 237 261 283 289 283 275 287 268 244 237 241 210
196 173 146 218 214 156 210 219 216 163 170 176 133 117 127 128 145 147 112 122 112 103 143 157 187 192 218 223 232 225 226 213 227 277 292 283 286 288 294 288 297 246 242 258